KAL273 VVTS-RKSI

Flight info

Callsign KAL273
Flight time N/A
Altitude 37000
Route PATMA5G PATMA W12 PCA G221 BUNTA DCT ANDRE A577 TNN W4 ANLOT B1 APU DCT DRAKE Q11 WP900 L4 LIPLO Y741 ATOTI Y722 OLMEN OLMEN3C
Aircraft B77W/H-SDE1E2E3FGHIJ2J3J4J5M1RWXY/LB1D1

Departure

Time N/A
Airport Tan Son Nhat International Airport (VVTS)

Arrival

Time 2026-05-05 10:38
Airport Incheon International Airport (RKSI)
Time Latitude Longitude Altitude Speed Heading
2026-05-05 10:26 37.53771 126.71714 13950 ft 313 kts
2026-05-05 10:26 37.55934 126.71499 12777 ft 315 kts 340°
2026-05-05 10:27 37.57812 126.70117 11679 ft 313 kts 315°
2026-05-05 10:27 37.59297 126.68113 10625 ft 312 kts 309°
2026-05-05 10:27 37.60756 126.66036 9215 ft 321 kts 309°
2026-05-05 10:27 37.62181 126.64035 9028 ft 290 kts 309°
2026-05-05 10:28 37.63277 126.62065 8663 ft 265 kts 291°
2026-05-05 10:28 37.63931 126.59916 7842 ft 263 kts 289°
2026-05-05 10:28 37.64600 126.57734 6950 ft 267 kts 289°
2026-05-05 10:28 37.65260 126.55622 6616 ft 249 kts 289°
2026-05-05 10:29 37.65885 126.53651 6142 ft 238 kts 289°
2026-05-05 10:29 37.66506 126.51691 5225 ft 246 kts 289°
2026-05-05 10:29 37.67135 126.49650 4440 ft 244 kts 287°
2026-05-05 10:29 37.67506 126.47646 4057 ft 227 kts 273°
2026-05-05 10:30 37.67643 126.45783 4052 ft 203 kts 272°
2026-05-05 10:30 37.67777 126.44067 3981 ft 199 kts 273°
2026-05-05 10:30 37.67931 126.42281 3669 ft 202 kts 273°
2026-05-05 10:30 37.67983 126.40550 3492 ft 191 kts 260°
2026-05-05 10:31 37.67777 126.38901 3428 ft 192 kts 257°
2026-05-05 10:31 37.67541 126.37211 3329 ft 197 kts 257°
2026-05-05 10:31 37.67129 126.34172 3215 ft 199 kts 257°
2026-05-05 10:31 37.66838 126.32086 3090 ft 194 kts 251°
2026-05-05 10:32 37.66164 126.30680 3018 ft 187 kts 221°
2026-05-05 10:32 37.65087 126.29826 3020 ft 179 kts 205°
2026-05-05 10:32 37.63956 126.29250 3006 ft 173 kts 203°
2026-05-05 10:32 37.63582 126.29065 3000 ft 169 kts 203°
2026-05-05 10:33 37.60671 126.29435 2836 ft 171 kts 156°
2026-05-05 10:33 37.59644 126.30134 2642 ft 165 kts 156°
2026-05-05 10:33 37.58994 126.30609 2565 ft 161 kts 154°
2026-05-05 10:34 37.58054 126.31379 2494 ft 163 kts 152°
2026-05-05 10:34 37.57109 126.32202 2437 ft 167 kts 151°
2026-05-05 10:34 37.56148 126.33055 2292 ft 170 kts 151°
2026-05-05 10:34 37.55211 126.33897 2090 ft 161 kts 151°
2026-05-05 10:35 37.54318 126.34698 1845 ft 151 kts 152°
2026-05-05 10:35 37.53485 126.35441 1673 ft 145 kts 152°
2026-05-05 10:35 37.52654 126.36185 1483 ft 146 kts 152°
2026-05-05 10:35 37.51843 126.36909 1254 ft 139 kts 151°
2026-05-05 10:36 37.51059 126.37608 1086 ft 139 kts 150°
2026-05-05 10:36 37.50270 126.38314 886 ft 139 kts 149°
2026-05-05 10:36 37.49473 126.39023 679 ft 142 kts 148°
2026-05-05 10:36 37.48668 126.39738 481 ft 142 kts 147°
2026-05-05 10:37 37.47861 126.40465 280 ft 142 kts 148°
2026-05-05 10:37 37.47092 126.41158 108 ft 134 kts 149°
2026-05-05 10:37 37.46314 126.41836 39 ft 132 kts 148°
2026-05-05 10:37 37.45706 126.42390 38 ft 81 kts 143°
2026-05-05 10:38 37.45391 126.42669 38 ft 40 kts 144°
2026-05-05 10:38 37.45275 126.42969 38 ft 32 kts 115°
2026-05-05 10:38 37.45124 126.43163 38 ft 30 kts 152°
2026-05-05 10:38 37.44953 126.43314 38 ft 30 kts 140°
2026-05-05 10:39 37.44787 126.43470 38 ft 23 kts 144°
2026-05-05 10:39 37.44750 126.43594 36 ft 15 kts 62°
2026-05-05 10:39 37.44808 126.43707 38 ft 16 kts 56°
2026-05-05 10:39 37.44872 126.43823 38 ft 17 kts 55°
2026-05-05 10:40 37.44962 126.43910 38 ft 17 kts 26°
2026-05-05 10:40 37.45041 126.43957 38 ft 11 kts 344°
2026-05-05 10:40 37.45112 126.43909 38 ft 14 kts 324°
2026-05-05 10:40 37.45203 126.43826 38 ft 17 kts 324°
2026-05-05 10:41 37.45297 126.43741 38 ft 17 kts 324°
2026-05-05 10:41 37.45395 126.43654 38 ft 17 kts 325°
2026-05-05 10:41 37.45494 126.43568 38 ft 18 kts 325°
2026-05-05 10:41 37.45599 126.43486 38 ft 18 kts 349°
2026-05-05 10:42 37.45804 126.43482 38 ft 15 kts 327°
2026-05-05 10:42 37.45890 126.43402 38 ft 16 kts 324°
2026-05-05 10:42 37.45976 126.43347 38 ft 14 kts
2026-05-05 10:43 37.46051 126.43426 38 ft 14 kts 56°
2026-05-05 10:43 37.46108 126.43528 38 ft 14 kts 53°
2026-05-05 10:43 37.46165 126.43628 38 ft 12 kts 52°
2026-05-05 10:43 37.46175 126.43641 38 ft 1 kts 43°
2026-05-05 10:44 37.46207 126.43660 38 ft 9 kts
2026-05-05 10:44 37.46264 126.43632 38 ft 9 kts 335°
2026-05-05 10:44 37.46319 126.43587 38 ft 10 kts 326°
2026-05-05 10:44 37.46374 126.43537 38 ft 10 kts 323°
2026-05-05 10:45 37.46403 126.43511 38 ft 1 kts 325°
2026-05-05 10:45 37.46414 126.43502 38 ft 2 kts 326°
2026-05-05 10:45 37.46431 126.43488 38 ft 3 kts 323°
2026-05-05 10:45 37.46443 126.43460 38 ft 4 kts 277°
2026-05-05 10:46 37.46442 126.43420 38 ft 5 kts 264°
2026-05-05 10:46 37.46438 126.43385 38 ft 3 kts 261°
2026-05-05 10:46 37.46435 126.43363 38 ft 1 kts 259°
2026-05-05 10:46 37.46433 126.43349 38 ft 2 kts 259°
2026-05-05 10:47 37.46432 126.43340 38 ft 0 kts 259°
2026-05-05 10:47 37.46432 126.43338 38 ft 0 kts 259°